Location: Newark
(43.0000°N, 1.6781°W)
Time: 23:36:08
(UTC+00:00)

N. Korean satellite - Pass Details

Date: 04 December 2021
Orbit: 447 x 491 km, 97.3° (Epoch: 21 January)

Event Time Altitude Azimuth Distance (km) Brightness Sun altitude
Rises 16:58:52 0° 185° (S) 2,532 10.7 -5.1°
Reaches altitude 10° 17:01:02 10° 194° (SSW) 1,649 9.9 -5.5°
Maximum altitude 17:04:20 36° 262° (W) 775 8.4 -6.0°
Drops below altitude 10° 17:07:36 10° 330° (NNW) 1,637 9.3 -6.6°
Sets 17:09:45 0° 340° (NNW) 2,510 10.2 -6.9°
